Faro current weather conditions

sailwx.info

Wind from 260 at 10 knots

Air temperature 27.0° C
Dewpoint 16.0° C

Last reported at 2014-Jul-22 17:30 UTC.
Time now 2014-Jul-22 19:01 UTC

Location: N 37°01' W 007°58'.
View on Google Maps.

See reports from other nearby stations

  
Tides and Currents Weather Stations Pressure Air Temp Water Temp Dewpoint Dewpoint Depression Visibility Wind Speed Wind Dir Waves Ship Positions
date/time (UTC)wind fromknots sea level pressurealtimeterstation pressurevisibilityair tempwater tempwave heightnotes
2014-Jul-22 17:30 260 10 27.0
2014-Jul-22 17:00 260 11 28.0
2014-Jul-22 16:30 270 11 28.0
2014-Jul-22 16:00 260 11 28.0
2014-Jul-22 15:30 270 9 29.0
2014-Jul-22 15:00 260 9 29.0
2014-Jul-22 14:30 260 9 28.0
2014-Jul-22 14:00 260 7 28.0
2014-Jul-22 13:30 260 9 28.0
2014-Jul-22 13:00 260 9 27.0
2014-Jul-22 12:30 260 9 26.0
2014-Jul-22 12:00 240 7 26.0
2014-Jul-22 11:30 240 6 25.0
2014-Jul-22 11:00 230 6 25.0
2014-Jul-22 10:30 230 4 25.0
2014-Jul-22 10:00 170 4 26.0
2014-Jul-22 09:52 170 4 26.0
2014-Jul-22 09:30 220 5 24.0
2014-Jul-22 09:00 190 5 24.0
2014-Jul-22 08:30 190 6 23.0
2014-Jul-22 08:00 180 5 23.0
2014-Jul-22 07:30 160 3 24.0
2014-Jul-22 07:00 23.0
2014-Jul-22 06:50 23.0
2014-Jul-22 06:30 21.0
2014-Jul-22 06:00 20.0
2014-Jul-22 05:30 21.0
2014-Jul-22 05:13 22.0
2014-Jul-22 05:00 20.0
2014-Jul-22 04:30 20.0
2014-Jul-22 04:00 320 1 22.0
2014-Jul-22 03:30 330 2 22.0
2014-Jul-22 03:00 21.0
2014-Jul-22 02:30 050 2 21.0
2014-Jul-22 02:00 22.0
2014-Jul-22 01:30 24.0
2014-Jul-22 01:00 24.0
2014-Jul-22 00:30 300 4 23.0
2014-Jul-22 00:00 280 5 23.0
2014-Jul-21 23:30 270 5 23.0
2014-Jul-21 23:00 290 6 24.0
2014-Jul-21 22:30 310 5 24.0
2014-Jul-21 22:00 310 9 25.0
2014-Jul-21 21:30 310 9 25.0
2014-Jul-21 21:00 310 10 26.0
2014-Jul-21 20:30 290 8 26.0
2014-Jul-21 20:22 290 9 26.0
2014-Jul-21 20:00 280 10 24.0
2014-Jul-21 19:30 270 10 23.0
2014-Jul-21 19:00 280 11 26.0
2014-Jul-21 18:30 280 11 26.0
2014-Jul-21 18:00 270 12 26.0
2014-Jul-21 17:30 270 12 27.0
2014-Jul-21 17:00 270 13 27.0
2014-Jul-21 16:30 270 15 27.0
2014-Jul-21 16:00 270 13 27.0
2014-Jul-21 15:30 270 13 27.0
2014-Jul-21 15:00 270 11 27.0
2014-Jul-21 14:30 260 11 26.0
2014-Jul-21 14:00 250 10 25.0
2014-Jul-21 13:30 250 9 25.0
2014-Jul-21 13:00 230 9 26.0
2014-Jul-21 12:30 220 8 26.0
2014-Jul-21 12:00 220 8 26.0
2014-Jul-21 11:30 230 8 26.0
2014-Jul-21 11:00 230 7 27.0
2014-Jul-21 10:30 220 7 27.0
2014-Jul-21 10:00 200 7 28.0
2014-Jul-21 09:30 28.0
2014-Jul-21 09:00 040 6 28.0
2014-Jul-21 08:30 050 7 27.0
2014-Jul-21 08:00 030 7 27.0
2014-Jul-21 07:52 030 7 27.0
2014-Jul-21 07:30 010 6 25.0
2014-Jul-21 07:00 010 5 24.0
2014-Jul-21 06:30 010 6 23.0
2014-Jul-21 06:00 020 6 22.0
2014-Jul-21 05:30 020 7 22.0
2014-Jul-21 05:00 010 10 22.0
2014-Jul-21 04:30 010 9 22.0
2014-Jul-21 04:00 010 9 22.0
2014-Jul-21 03:30 010 10 22.0
2014-Jul-21 03:00 010 11 22.0
2014-Jul-21 02:30 010 9 22.0
2014-Jul-21 02:00 010 9 22.0
2014-Jul-21 01:30 360 9 22.0
2014-Jul-21 01:00 360 10 22.0
2014-Jul-21 00:30 360 9 22.0
2014-Jul-21 00:00 360 10 22.0
2014-Jul-20 23:30 360 9 23.0
2014-Jul-20 23:00 360 8 23.0
2014-Jul-20 22:30 360 10 23.0
2014-Jul-20 22:00 350 12 23.0
2014-Jul-20 21:30 350 13 23.0
2014-Jul-20 21:00 340 13 24.0
2014-Jul-20 20:30 320 10 24.0
2014-Jul-20 20:00 320 11 25.0
2014-Jul-20 19:30 310 14 26.0
2014-Jul-20 19:00 310 14 27.0